Regional Weather Roundup
Issued by NWS Green Bay, WI

Home | Current Version | Previous Version | Graphics & Text | Print | Product List | Glossary Off
Versions: 1 2 3 4 5 6 7 8 9 10 11 12 13 14 15 16 17 18 19 20 21 22 23 24 25 26 27 28 29 30 31 32 33 34 35 36 37 38 39 40 41 42 43 44 45 46 47 48 49 50

000
ASUS43 KGRB 031310
RWRGRB

NORTH-CENTRAL AND NORTHEAST WISCONSIN REGIONAL WEATHER ROUNDUP
NATIONAL WEATHER SERVICE GREEN BAY WI
800 AM CDT SUN MAY 03 2015

WIZ005-009-010>012-018-019-031400-
NORTH CENTRAL WISCONSIN

CITY           SKY/WX    TMP DP  RH WIND       PRES   REMARKS
IRONWOOD       CLOUDY    63  50  63 SW12G17   29.73F
MANITOWISH WTR PTSUNNY   59  50  71 SW13G18   29.82F
ARBOR VITAE    MOSUNNY   59  51  73 SW6       29.84S
EAGLE RIVER    MOSUNNY   59  47  65 SW8       29.84S
LAND O LAKES   MOSUNNY   60  49  65 SW10G17   29.84S
RHINELANDER    SUNNY     59  49  69 SW10      29.86R
PHILLIPS       CLOUDY    58  50  75 SW7       29.83S
ANTIGO         SUNNY     59  49  69 SW9       29.86S
TOMAHAWK       SUNNY     56  49  77 CALM      29.86R
MERRILL        SUNNY     60  51  71 W5        29.86R
$$

WIZ013-073-031400-
NORTHEAST WISCONSIN

CITY           SKY/WX    TMP DP  RH WIND       PRES   REMARKS
IRON MOUNTAIN  SUNNY     64  49  57 SW7       29.83S
MARINETTE      SUNNY     63  46  55 SW10      29.86S
OCONTO         SUNNY     63  49  61 S6        29.86F
$$

WIZ017-030-035>037-045-031400-
CENTRAL WISCONSIN

CITY           SKY/WX    TMP DP  RH WIND       PRES   REMARKS
MEDFORD        PTSUNNY   58  49  74 SW7       29.86R
WAUSAU         MOSUNNY   61  50  67 SW12      29.84S
MOSINEE        MOSUNNY   59  52  77 S10       29.87S
MARSHFIELD     CLOUDY    60  50  69 S8        29.86R
WISC RAPIDS    PTSUNNY   61  48  62 SW8       29.87S
STEVENS POINT  MOSUNNY   59  48  67 S12       29.87R
WAUPACA        MOSUNNY   62  51  66 S7        29.88S
SHAWANO        SUNNY     62  49  62 SW6       29.87S
CLINTONVILLE   SUNNY     61  48  63 S9        29.87S
$$

WIZ038-039-048-051-031400-
FOX VALLEY

CITY           SKY/WX    TMP DP  RH WIND       PRES   REMARKS
NWS GREEN BAY  SUNNY     63  51  65 S9        29.89S
APPLETON       PTSUNNY   63  48  59 SW13      29.89F
OSHKOSH        SUNNY     63  49  60 S13       29.89S
FOND DU LAC    SUNNY     66  46  48 SW13G22   29.90F
$$

WIZ022-050-052-031400-
EAST CENTRAL WISCONSIN

CITY           SKY/WX    TMP DP  RH WIND       PRES   REMARKS
STURGEON BAY   MOSUNNY   63  48  59 S8        29.91S
MANITOWOC      MOSUNNY   61  51  70 S7        29.92R
SHEBOYGAN      MOSUNNY   61  49  64 S9        29.92S
$$

LMZ563-521-522-541>543-031400-
LAKESHORE

STATION/POSITION TIME  TEMP    WIND        PRES    VSBY  WAVE
                       AIR SEA DIR/SP/G                  HT/PER
                 (UTC) (F)     (DEG/KT/KT) (MB)    (MI)  (FT/S)
SHEBOYGAN LKSHOR 1300   58     190/ 10/ 11 1013.5F
KEWAUNEE LKSHORE 1300   49     180/ 10/ 11 1011.8S
TWO RIVERS CG    1200   46                 1013.1      6   1
NORTHPORT PIER   1300   48     160/  6/  8 1011.9S
SISTER BAY LKSHO 1300   65     220/ 12/ 15   N/A
STURGEON BAY CG  1200   46     180/  8     1025.6      6   1
CHAMBERS ISLAND  1300   58     170/  6/ 12 1011.9S
MENOMINEE LKSHOR 1300   61     210/ 10/ 13 1011.8F
$$


USA.gov is the U.S. government's official web portal to all federal, state and local government web resources and services.